GW1992 Weather Reports


time (UTC)temp
C
wind
direction
speed
KPH
gust
KPH
rain 1hr
cm
rain 24hr
cm
rain mn
cm
humidity
%
barometer
mb
20260505152053 26 131 3.2 8.0 0.00 0.00 0.00 36 1013.6
20260505151548 25 177 1.6 4.8 0.00 0.00 0.00 39 1013.7
20260505151046 25 278 4.8 9.7 0.00 0.00 0.00 39 1013.6
20260505150542 25 196 4.8 11.3 0.00 0.00 0.00 39 1013.7
20260505140507 23 169 4.8 9.7 0.00 0.00 0.00 42 1013.9
20260505124921 19 34 4.8 8.0 0.00 0.00 0.00 53 1014.4
20260505124418 18 211 6.4 8.0 0.00 0.00 0.00 53 1014.4
20260505123914 18 158 3.2 11.3 0.00 0.00 0.00 54 1014.3
20260505123411 18 63 4.8 4.8 0.00 0.00 0.00 54 1014.3
20260505122906 18 209 6.4 9.7 0.00 0.00 0.00 54 1014.2
20260505122404 18 235 6.4 9.7 0.00 0.00 0.00 54 1014.0
20260505121900 18 301 8.0 9.7 0.00 0.00 0.00 55 1014.0
20260505121358 18 35 6.4 9.7 0.00 0.00 0.00 55 1014.1
20260505120853 18 221 6.4 8.0 0.00 0.00 0.00 56 1014.1
20260505120350 17 201 1.6 4.8 0.00 0.00 0.00 56 1014.0
20260505115848 17 137 4.8 9.7 0.00 0.00 0.00 57 1014.0
20260505115346 17 200 3.2 8.0 0.00 0.00 0.00 57 1014.1
20260505114844 17 152 4.8 8.0 0.00 0.00 0.00 58 1014.1
20260505114340 17 104 4.8 4.8 0.00 0.00 0.00 59 1014.1
20260505113836 17 19 4.8 8.0 0.00 0.00 0.00 59 1014.0
20260505113333 16 91 1.6 4.8 0.00 0.00 0.00 60 1014.0
20260505112828 16 36 4.8 8.0 0.00 0.00 0.00 60 1013.9
20260505112326 16 330 3.2 3.2 0.00 0.00 0.00 61 1014.0
20260505111821 16 17 3.2 3.2 0.00 0.00 0.00 61 1013.9
20260505111317 16 78 0.0 1.6 0.00 0.00 0.00 62 1013.8
20260505110814 16 53 0.0 4.8 0.00 0.00 0.00 62 1013.7
20260505110311 16 93 1.6 3.2 0.00 0.00 0.00 62 1013.7
20260505101745 15 91 1.6 1.6 0.00 0.00 0.00 63 1013.6
20260505101241 15 72 3.2 3.2 0.00 0.00 0.00 63 1013.3
20260505100738 15 112 1.6 1.6 0.00 0.00 0.00 64 1013.3
20260505100234 15 85 1.6 1.6 0.00 0.00 0.00 63 1013.2
20260505095729 15 92 1.6 3.2 0.00 0.00 0.00 63 1013.2
20260505095228 15 76 1.6 3.2 0.00 0.00 0.00 63 1013.2
20260505094723 15 82 1.6 3.2 0.00 0.00 0.00 63 1013.3
20260505094220 15 75 0.0 0.0 0.00 0.00 0.00 63 1013.0
20260505093716 15 185 1.6 3.2 0.00 0.00 0.00 64 1013.1
20260505093214 15 90 0.0 1.6 0.00 0.00 0.00 63 1013.0
20260505092710 15 81 0.0 1.6 0.00 0.00 0.00 63 1012.9
20260505092210 15 102 1.6 3.2 0.00 0.00 0.00 63 1013.1
20260505091706 15 101 1.6 3.2 0.00 0.00 0.00 64 1013.0
20260505091204 15 103 1.6 3.2 0.00 0.00 0.00 64 1013.1
20260505090701 15 76 0.0 0.0 0.00 0.00 0.00 62 1013.1
20260505090159 16 82 0.0 3.2 0.00 0.00 0.00 62 1013.0
20260505085657 15 101 1.6 9.7 0.00 0.00 0.00 62 1013.0
20260505085155 15 104 3.2 4.8 0.00 0.00 0.00 63 1013.0
20260505084652 15 110 0.0 1.6 0.00 0.00 0.00 63 1013.1
20260505084150 15 102 0.0 1.6 0.00 0.00 0.00 62 1012.9
20260505083647 15 186 4.8 4.8 0.00 0.00 0.00 62 1012.9
20260505083144 15 73 0.0 0.0 0.00 0.00 0.00 61 1013.0
20260505082640 15 136 1.6 3.2 0.00 0.00 0.00 62 1013.3
20260505082137 15 77 0.0 1.6 0.00 0.00 0.00 62 1013.3
20260505081633 15 75 0.0 1.6 0.00 0.00 0.00 62 1013.2
20260505081131 15 79 0.0 3.2 0.00 0.00 0.00 61 1013.2
20260505080627 16 87 1.6 1.6 0.00 0.00 0.00 60 1013.1
20260505080123 16 81 0.0 1.6 0.00 0.00 0.00 60 1013.1
20260505075620 16 81 0.0 1.6 0.00 0.00 0.00 59 1012.9
20260505075116 16 74 0.0 0.0 0.00 0.00 0.00 59 1013.1
20260505074613 16 82 0.0 1.6 0.00 0.00 0.00 58 1012.8
20260505074110 16 90 0.0 1.6 0.00 0.00 0.00 58 1013.2
20260505073608 16 57 1.6 4.8 0.00 0.00 0.00 57 1013.1
20260505073106 16 113 1.6 4.8 0.00 0.00 0.00 57 1013.2
20260505072601 16 160 1.6 4.8 0.00 0.00 0.00 57 1013.1
20260505072058 17 128 3.2 3.2 0.00 0.00 0.00 56 1013.0
20260505071553 16 171 3.2 4.8 0.00 0.00 0.00 56 1013.0
20260505071052 17 100 1.6 1.6 0.00 0.00 0.00 56 1013.3
20260505070549 17 320 4.8 9.7 0.00 0.00 0.00 56 1013.1
20260505070044 17 122 4.8 9.7 0.00 0.00 0.00 56 1013.1
20260505065541 17 137 3.2 4.8 0.00 0.00 0.00 56 1013.2
20260505065038 16 190 3.2 4.8 0.00 0.00 0.00 56 1013.2
20260505064534 16 94 3.2 8.0 0.00 0.00 0.00 56 1013.1
20260505064033 16 99 1.6 4.8 0.00 0.00 0.00 57 1013.2
20260505063530 16 71 0.0 1.6 0.00 0.00 0.00 57 1013.1
20260505063025 16 72 0.0 1.6 0.00 0.00 0.00 57 1013.2
20260505062523 16 75 0.0 1.6 0.00 0.00 0.00 57 1013.1
20260505062020 16 73 0.0 1.6 0.00 0.00 0.00 56 1013.2
20260505061517 16 91 1.6 3.2 0.00 0.00 0.00 57 1013.1
20260505061015 16 91 1.6 1.6 0.00 0.00 0.00 56 1012.9
20260505060512 16 205 6.4 9.7 0.00 0.00 0.00 57 1013.1
20260505060009 16 104 1.6 4.8 0.00 0.00 0.00 56 1013.2
20260505055504 16 101 3.2 3.2 0.00 0.00 0.00 56 1013.1
20260505055001 16 116 1.6 4.8 0.00 0.00 0.00 56 1013.0
20260505054458 16 78 1.6 4.8 0.00 0.00 0.00 55 1012.9
20260505053956 16 116 3.2 9.7 0.00 0.00 0.00 56 1013.1
20260505053453 16 92 0.0 3.2 0.00 0.00 0.00 56 1013.1
20260505052950 16 112 0.0 3.2 0.00 0.00 0.00 56 1013.1
20260505052447 16 89 0.0 1.6 0.00 0.00 0.00 55 1013.2
20260505051944 16 85 1.6 8.0 0.00 0.00 0.00 54 1013.2
20260505051441 16 94 1.6 3.2 0.00 0.00 0.00 54 1013.2
20260505050939 16 90 0.0 3.2 0.00 0.00 0.00 54 1013.2
20260505050437 16 97 1.6 3.2 0.00 0.00 0.00 53 1013.2
20260505041405 16 84 0.0 1.6 0.00 0.00 0.00 52 1013.3
20260505040901 16 86 3.2 4.8 0.00 0.00 0.00 51 1013.3
20260505040359 16 107 3.2 4.8 0.00 0.00 0.00 50 1013.1
20260505035856 16 100 4.8 4.8 0.00 0.00 0.00 50 1013.1
20260505035351 16 106 1.6 1.6 0.00 0.00 0.00 50 1013.0
20260505034849 16 152 3.2 4.8 0.00 0.00 0.00 49 1013.0
20260505034345 17 145 4.8 8.0 0.00 0.00 0.00 49 1013.1
20260505033843 17 107 1.6 4.8 0.00 0.00 0.00 48 1013.2
20260505033339 16 118 1.6 8.0 0.00 0.00 0.00 48 1013.2
20260505032838 17 112 3.2 4.8 0.00 0.00 0.00 48 1013.1
20260505032334 17 106 1.6 3.2 0.00 0.00 0.00 47 1013.2
20260505031831 17 130 3.2 9.7 0.00 0.00 0.00 47 1013.4
20260505031327 17 133 1.6 4.8 0.00 0.00 0.00 47 1013.1
20260505030825 17 83 1.6 4.8 0.00 0.00 0.00 46 1013.4
20260505030321 17 97 1.6 8.0 0.00 0.00 0.00 46 1013.3
20260505025816 17 179 4.8 4.8 0.00 0.00 0.00 46 1013.2
20260505025314 17 92 1.6 1.6 0.00 0.00 0.00 47 1013.1
20260505024812 17 107 1.6 3.2 0.00 0.00 0.00 46 1013.2
20260505024310 17 119 1.6 3.2 0.00 0.00 0.00 46 1013.3
20260505023807 17 99 1.6 3.2 0.00 0.00 0.00 47 1013.3
20260505023304 16 90 1.6 1.6 0.00 0.00 0.00 47 1013.6
20260505022801 16 86 1.6 1.6 0.00 0.00 0.00 48 1013.5
20260505022258 17 83 0.0 1.6 0.00 0.00 0.00 47 1013.5
20260505021755 17 81 0.0 1.6 0.00 0.00 0.00 46 1013.5
20260505021251 17 91 3.2 3.2 0.00 0.00 0.00 46 1013.6
20260505020748 17 82 0.0 1.6 0.00 0.00 0.00 46 1013.5
20260505020243 17 58 1.6 1.6 0.00 0.00 0.00 47 1013.5
20260505015740 17 68 0.0 1.6 0.00 0.00 0.00 46 1013.5
20260505015237 17 67 0.0 1.6 0.00 0.00 0.00 46 1013.3
20260505014734 17 71 0.0 1.6 0.00 0.00 0.00 45 1013.3
20260505014232 17 124 4.8 4.8 0.00 0.00 0.00 44 1013.4
20260505013728 17 81 0.0 3.2 0.00 0.00 0.00 44 1013.6
20260505013225 17 76 0.0 1.6 0.00 0.00 0.00 44 1013.4
20260505012724 18 81 0.0 1.6 0.00 0.00 0.00 43 1013.2
20260505012220 17 92 0.0 1.6 0.00 0.00 0.00 44 1013.4
20260505011715 17 89 0.0 1.6 0.00 0.00 0.00 44 1013.4
20260505011214 17 99 1.6 1.6 0.00 0.00 0.00 45 1013.3
20260505010709 17 82 0.0 0.0 0.00 0.00 0.00 44 1013.2
20260505010206 17 84 1.6 1.6 0.00 0.00 0.00 44 1013.1
20260505005701 17 82 0.0 1.6 0.00 0.00 0.00 44 1013.0
20260505005159 18 84 0.0 0.0 0.00 0.00 0.00 43 1013.0
20260505004656 17 108 1.6 1.6 0.00 0.00 0.00 43 1013.1
20260505004152 18 83 0.0 0.0 0.00 0.00 0.00 43 1013.0
20260505003649 18 85 0.0 1.6 0.00 0.00 0.00 43 1013.0
20260505003147 18 81 0.0 0.0 0.00 0.00 0.00 42 1012.8
20260505002643 18 84 0.0 0.0 0.00 0.00 0.00 42 1012.9
20260505002141 18 81 0.0 0.0 0.00 0.00 0.00 41 1013.0
20260505001638 19 82 0.0 3.2 0.00 0.00 0.00 41 1012.9
20260505001136 19 49 0.0 1.6 0.00 0.00 0.00 40 1012.7
20260505000633 20 94 3.2 4.8 0.00 0.00 0.00 39 1012.8
20260505000131 20 84 0.0 1.6 0.00 0.00 0.00 39 1012.8
20260504235627 20 92 3.2 3.2 0.00 0.00 0.00 38 1012.8
20260504235123 20 163 4.8 4.8 0.00 0.00 0.00 38 1012.7
20260504234620 20 98 0.0 1.6 0.00 0.00 0.00 38 1012.7
20260504234118 20 111 3.2 3.2 0.00 0.00 0.00 37 1012.7
20260504233613 20 113 1.6 1.6 0.00 0.00 0.00 37 1012.7
20260504233110 20 126 4.8 8.0 0.00 0.00 0.00 36 1012.7
20260504232607 21 108 1.6 4.8 0.00 0.00 0.00 36 1012.7
20260504232105 21 113 1.6 3.2 0.00 0.00 0.00 35 1012.6
20260504231601 21 139 4.8 4.8 0.00 0.00 0.00 34 1012.7
20260504231057 21 98 1.6 3.2 0.00 0.00 0.00 35 1012.6
20260504230553 22 105 3.2 9.7 0.00 0.00 0.00 34 1012.5
20260504230053 22 147 1.6 8.0 0.00 0.00 0.00 34 1012.7
20260504225549 22 50 3.2 9.7 0.00 0.00 0.00 33 1012.7
20260504225046 22 126 1.6 4.8 0.00 0.00 0.00 33 1012.7
20260504224543 22 150 4.8 9.7 0.00 0.00 0.00 32 1012.5
20260504224040 22 207 4.8 11.3 0.00 0.00 0.00 32 1012.5
20260504223537 22 110 3.2 8.0 0.00 0.00 0.00 32 1012.6
20260504223033 22 68 3.2 8.0 0.00 0.00 0.00 31 1012.7
20260504222530 22 146 3.2 8.0 0.00 0.00 0.00 32 1012.7
20260504222027 22 253 8.0 14.5 0.00 0.00 0.00 33 1012.7
20260504221524 22 208 4.8 8.0 0.00 0.00 0.00 32 1012.7
20260504221021 22 74 3.2 8.0 0.00 0.00 0.00 32 1012.8
20260504220518 22 188 6.4 9.7 0.00 0.00 0.00 32 1012.7
20260504220015 22 231 6.4 9.7 0.00 0.00 0.00 32 1012.8
20260504215511 22 103 3.2 8.0 0.00 0.00 0.00 32 1012.7
20260504215009 22 152 8.0 12.9 0.00 0.00 0.00 32 1012.7
20260504214504 22 103 1.6 4.8 0.00 0.00 0.00 32 1012.8
20260504214001 22 125 1.6 4.8 0.00 0.00 0.00 32 1012.8
20260504213456 23 79 4.8 8.0 0.00 0.00 0.00 32 1012.9
20260504212955 23 165 3.2 9.7 0.00 0.00 0.00 32 1012.9
20260504212450 23 214 6.4 12.9 0.00 0.00 0.00 32 1012.9
20260504211948 22 148 4.8 12.9 0.00 0.00 0.00 33 1012.8
20260504211444 23 230 6.4 9.7 0.00 0.00 0.00 33 1012.8
20260504210942 23 289 6.4 14.5 0.00 0.00 0.00 33 1012.9
20260504210438 23 8 4.8 8.0 0.00 0.00 0.00 32 1012.8
20260504205935 23 295 6.4 11.3 0.00 0.00 0.00 33 1012.7
20260504205433 22 67 3.2 11.3 0.00 0.00 0.00 33 1012.8
20260504204931 22 186 8.0 11.3 0.00 0.00 0.00 32 1012.7
20260504204429 22 143 9.7 12.9 0.00 0.00 0.00 33 1012.8
20260504203928 22 68 4.8 12.9 0.00 0.00 0.00 33 1012.9
20260504203425 22 165 9.7 11.3 0.00 0.00 0.00 33 1012.8
20260504202921 22 210 6.4 12.9 0.00 0.00 0.00 33 1012.9
20260504202418 23 6 8.0 16.1 0.00 0.00 0.00 32 1013.1
20260504201914 23 158 4.8 11.3 0.00 0.00 0.00 32 1013.0
20260504201412 22 232 3.2 8.0 0.00 0.00 0.00 33 1012.9
20260504200909 22 49 6.4 11.3 0.00 0.00 0.00 32 1013.0
20260504200406 22 18 3.2 4.8 0.00 0.00 0.00 33 1013.0
20260504195903 22 269 8.0 16.1 0.00 0.00 0.00 32 1013.3
20260504195358 22 214 4.8 8.0 0.00 0.00 0.00 33 1013.2
20260504194855 23 205 4.8 8.0 0.00 0.00 0.00 33 1013.1
20260504194351 22 122 4.8 11.3 0.00 0.00 0.00 32 1013.2
20260504193847 22 161 4.8 4.8 0.00 0.00 0.00 33 1013.2
20260504193344 22 166 9.7 16.1 0.00 0.00 0.00 34 1013.2
20260504192843 22 194 6.4 8.0 0.00 0.00 0.00 33 1013.2
20260504192341 22 138 8.0 11.3 0.00 0.00 0.00 32 1013.5
20260504191839 22 291 6.4 8.0 0.00 0.00 0.00 32 1013.5
20260504191337 22 159 1.6 16.1 0.00 0.00 0.00 33 1013.4
20260504190832 22 210 6.4 8.0 0.00 0.00 0.00 31 1013.6
20260504190328 22 99 3.2 4.8 0.00 0.00 0.00 32 1013.5
20260504185825 22 75 3.2 11.3 0.00 0.00 0.00 33 1013.6
20260504185321 22 117 3.2 9.7 0.00 0.00 0.00 33 1013.7
20260504184818 22 207 8.0 17.7 0.00 0.00 0.00 33 1013.8
20260504184314 22 120 3.2 4.8 0.00 0.00 0.00 33 1013.8
20260504183809 22 157 6.4 11.3 0.00 0.00 0.00 33 1013.9
20260504183307 22 148 4.8 9.7 0.00 0.00 0.00 32 1014.0
20260504182804 22 340 4.8 8.0 0.00 0.00 0.00 33 1014.1
20260504182304 22 149 6.4 11.3 0.00 0.00 0.00 34 1014.1
20260504181759 21 72 8.0 14.5 0.00 0.00 0.00 32 1014.1
20260504181256 21 71 1.6 11.3 0.00 0.00 0.00 32 1014.3
20260504180755 22 211 6.4 12.9 0.00 0.00 0.00 32 1014.4
20260504180253 21 148 4.8 9.7 0.00 0.00 0.00 32 1014.3
20260504175751 21 151 8.0 12.9 0.00 0.00 0.00 32 1014.5
20260504175247 21 201 4.8 14.5 0.00 0.00 0.00 32 1014.5
20260504174745 21 274 4.8 11.3 0.00 0.00 0.00 32 1014.6
20260504174243 21 45 9.7 12.9 0.00 0.00 0.00 33 1014.6
20260504173739 21 72 8.0 14.5 0.00 0.00 0.00 32 1014.6
20260504173236 21 231 4.8 11.3 0.00 0.00 0.00 32 1014.9
20260504172733 21 349 8.0 12.9 0.00 0.00 0.00 32 1014.9
20260504172230 21 256 8.0 12.9 0.00 0.00 0.00 32 1014.9
20260504171726 21 191 6.4 12.9 0.00 0.00 0.00 32 1015.0
20260504171223 20 191 4.8 8.0 0.00 0.00 0.00 33 1014.8
20260504170720 20 192 1.6 8.0 0.00 0.00 0.00 33 1015.2
20260504170217 20 136 8.0 12.9 0.00 0.00 0.00 32 1015.3
20260504160136 20 199 8.0 12.9 0.00 0.00 0.00 33 1015.9